Flag for U.S.A. Weather past 2 weeks in Huntington Beach, California, U.S.A.

Now
66 °F

Sunny.


Feels Like: 66 °F
Forecast: 45 / 62 °F
Wind: 5 mph from North

Location: John Wayne Airport-Orange County Airport

Current Time: Dec 26, 2014 at 4:22:42 PM

Latest Report: Dec 26, 2014 at 3:53 PM


Visibility: 10 mi

Pressure: 30.06 "Hg

Humidity: 9%

Dew point: 6 °F

Location of Huntington BeachLocation

Historic Weather in Huntington Beach — Graph

°F

Huntington Beach temperature yesterday

Maximum temperature yesterday: 69 °F (at 2:53 PM)
Minimum temperature yesterday: 53 °F (at 10:53 PM)
Average temperature yesterday: 61 °F

Past Weeks' High & Low Weather Summary

 TemperatureHumidityPressure
High77 °F (Dec 23, 11:53 AM)90% (Dec 23, 4:53 AM)30.24 "Hg (Dec 23, 4:53 AM)
Low50 °F (Dec 14, 5:53 AM)10% (Dec 26, 2:53 PM)29.76 "Hg (Dec 25, 2:53 AM)
Average61 °F63%30.04 "Hg
* Reported Dec 11 2:53 PM — Dec 26 2:53 PM, Huntington Beach, Weather by CustomWeather, © 2014

Note: Actual official high and low records may vary slightly from our data, if they occured in-between our weather recording intervals... More about our weather records

Advertising

Huntington Beach weather history for previous 24 hours

 ConditionsComfort  
Time TempWeatherWind HumidityBarometerVisibility
2:53 PM
Dec 26
66 °FSunny.3 mph10%30.05 "Hg10 mi
1:53 PM66 °FSunny.3 mph11%30.03 "Hg10 mi
12:53 PM65 °FSunny.9 mph11%30.03 "Hg10 mi
11:53 AM66 °FSunny.10 mph11%30.06 "Hg10 mi
10:53 AM64 °FSunny.12 mph11%30.08 "Hg10 mi
9:53 AM63 °FSunny.12 mph13%30.09 "Hg10 mi
8:53 AM61 °FSunny.13 mph14%30.06 "Hg10 mi
7:53 AM58 °FSunny.12 mph16%30.04 "Hg10 mi
6:53 AM56 °FClear.12 mph16%30.02 "Hg10 mi
5:53 AM55 °FClear.7 mph18%29.99 "Hg10 mi
4:53 AM55 °FClear.5 mph18%29.96 "Hg10 mi
3:53 AM55 °FClear.7 mph19%29.95 "Hg10 mi
2:53 AM55 °FClear.No wind18%29.94 "Hg10 mi
1:53 AM56 °FClear.3 mph18%29.93 "Hg10 mi
12:53 AM54 °FClear.No wind24%29.92 "Hg10 mi
11:53 PM
Dec 25
54 °FClear.No wind25%29.91 "Hg10 mi
10:53 PM53 °FClear.No wind32%29.92 "Hg10 mi
9:53 PM55 °FClear.No wind28%29.91 "Hg10 mi
8:53 PM57 °FClear.No wind23%29.89 "Hg10 mi
7:53 PM59 °FClear.No wind20%29.89 "Hg10 mi
6:53 PM61 °FClear.No wind18%29.87 "Hg10 mi
5:53 PM63 °FClear.5 mph15%29.84 "Hg10 mi
4:53 PM66 °FPassing clouds.8 mph13%29.82 "Hg10 mi
Weather by CustomWeather, © 2014

See weather overviewHow to use our weather pages